{"data":{"norad_id":47934,"epoch":"2026-09-20T04:15:32.626080Z","epoch_age_seconds":60184,"freshness":"FRESH","line1":"1 47934U 21022C   26263.17746095 -.00000058  00000+0 -37452-7 0  9994","line2":"2 47934  97.5226 143.1536 0016443   4.2466 355.8894 14.98901021300126","mean_motion":14.98901021,"eccentricity":0.0016443,"inclination_deg":97.5226,"raan_deg":143.1536,"arg_perigee_deg":4.2466,"mean_anomaly_deg":355.8894,"bstar":-3.7452e-8,"rev_number":30012,"period_min":96.070386224655,"perigee_km":558.86531669352,"apogee_km":581.71591575223,"semimajor_km":6948.4276162229,"source":"CELESTRAK","updated_at":"2026-09-20T09:00:14.960203Z"}}